TimeCST,TemperatureF,Dew PointF,Humidity,Sea Level PressureIn,VisibilityMPH,Wind Direction,Wind SpeedMPH,Gust SpeedMPH,PrecipitationIn,Events,Conditions,WindDirDegrees,DateUTC
12:15 AM,64.4,57.0,77,30.01,10.0,East,17.3,24.2,N/A,,Clear,100,2013-02-20 06:15:00
12:35 AM,64.4,56.8,76,30.02,10.0,ESE,13.8,-,N/A,,Clear,110,2013-02-20 06:35:00
12:55 AM,64.6,57.0,76,30.02,10.0,ESE,12.7,20.7,N/A,,Clear,110,2013-02-20 06:55:00
1:15 AM,64.4,57.4,78,30.03,10.0,ESE,10.4,18.4,N/A,,Clear,110,2013-02-20 07:15:00
1:35 AM,64.0,57.6,79,30.03,10.0,ESE,9.2,-,N/A,,Clear,110,2013-02-20 07:35:00
1:55 AM,63.7,58.1,82,30.02,10.0,ESE,9.2,-,N/A,,Clear,110,2013-02-20 07:55:00
2:15 AM,63.9,58.5,83,30.02,10.0,East,9.2,-,N/A,,Scattered Clouds,100,2013-02-20 08:15:00
2:35 AM,65.1,59.0,81,30.02,10.0,ESE,9.2,-,N/A,,Overcast,110,2013-02-20 08:35:00
3:15 AM,66.0,59.0,78,30.02,10.0,East,8.1,-,N/A,,Overcast,90,2013-02-20 09:15:00
3:35 AM,66.2,59.0,78,30.02,10.0,East,8.1,-,N/A,,Overcast,80,2013-02-20 09:35:00
3:55 AM,66.2,59.0,78,30.02,10.0,East,5.8,-,N/A,,Overcast,90,2013-02-20 09:55:00
4:15 AM,66.4,59.4,78,30.01,10.0,East,8.1,-,N/A,,Overcast,90,2013-02-20 10:15:00
4:35 AM,66.6,59.5,78,30.00,10.0,East,11.5,-,N/A,,Overcast,90,2013-02-20 10:35:00
4:55 AM,66.7,59.9,79,30.00,10.0,East,12.7,-,N/A,,Overcast,90,2013-02-20 10:55:00
5:15 AM,66.7,60.4,80,29.99,10.0,East,12.7,-,N/A,,Overcast,100,2013-02-20 11:15:00
5:35 AM,66.9,61.0,81,29.99,10.0,East,12.7,-,N/A,,Overcast,100,2013-02-20 11:35:00
6:15 AM,66.9,61.7,83,29.96,10.0,East,15.0,23.0,N/A,,Scattered Clouds,100,2013-02-20 12:15:00
6:35 AM,67.1,62.2,84,29.95,10.0,ESE,15.0,21.9,N/A,,Scattered Clouds,110,2013-02-20 12:35:00
6:55 AM,67.3,62.8,85,29.95,10.0,ESE,16.1,-,N/A,,Scattered Clouds,110,2013-02-20 12:55:00
7:15 AM,67.5,63.5,87,29.96,10.0,ESE,15.0,20.7,N/A,,Mostly Cloudy,110,2013-02-20 13:15:00
7:35 AM,68.0,63.7,86,29.98,10.0,ESE,13.8,18.4,N/A,,Overcast,110,2013-02-20 13:35:00
7:55 AM,68.0,63.9,87,29.96,10.0,ESE,17.3,-,N/A,,Overcast,120,2013-02-20 13:55:00
8:15 AM,68.4,64.4,87,29.96,10.0,ESE,16.1,21.9,N/A,,Overcast,120,2013-02-20 14:15:00
8:35 AM,68.9,64.6,86,29.96,10.0,ESE,16.1,23.0,N/A,,Overcast,120,2013-02-20 14:35:00
9:15 AM,69.8,65.3,86,29.96,10.0,SE,17.3,-,N/A,,Overcast,130,2013-02-20 15:15:00
9:35 AM,70.0,65.5,86,29.95,10.0,SE,19.6,24.2,N/A,,Overcast,130,2013-02-20 15:35:00
9:55 AM,70.0,65.7,86,29.94,10.0,SE,15.0,23.0,N/A,,Overcast,140,2013-02-20 15:55:00
10:15 AM,70.7,66.2,86,29.92,10.0,SE,19.6,32.2,N/A,,Overcast,140,2013-02-20 16:15:00
10:35 AM,71.8,66.7,84,29.92,10.0,SE,20.7,27.6,N/A,,Overcast,130,2013-02-20 16:35:00
10:55 AM,72.0,67.1,85,29.92,10.0,SE,20.7,26.5,N/A,,Overcast,140,2013-02-20 16:55:00
11:15 AM,71.8,67.1,85,29.92,10.0,SE,15.0,25.3,N/A,,Overcast,140,2013-02-20 17:15:00
11:35 AM,72.0,67.3,85,29.91,10.0,SE,20.7,26.5,N/A,,Overcast,140,2013-02-20 17:35:00
11:55 AM,72.3,67.3,84,29.91,10.0,SE,16.1,26.5,N/A,,Overcast,140,2013-02-20 17:55:00
12:15 PM,72.1,67.1,84,29.91,10.0,SE,13.8,21.9,N/A,,Overcast,140,2013-02-20 18:15:00
12:35 PM,72.3,67.1,84,29.90,10.0,SE,12.7,20.7,N/A,,Overcast,140,2013-02-20 18:35:00
12:55 PM,72.7,67.3,83,29.87,10.0,SE,16.1,-,N/A,,Overcast,140,2013-02-20 18:55:00
1:15 PM,72.9,67.3,83,29.87,10.0,SE,16.1,21.9,N/A,,Overcast,140,2013-02-20 19:15:00
1:35 PM,72.7,67.3,83,29.86,10.0,SE,15.0,23.0,N/A,,Overcast,140,2013-02-20 19:35:00
1:55 PM,72.9,67.5,83,29.85,10.0,SE,16.1,21.9,N/A,,Overcast,140,2013-02-20 19:55:00
2:15 PM,72.3,67.3,84,29.84,10.0,SSE,10.4,21.9,N/A,,Overcast,150,2013-02-20 20:15:00
2:35 PM,71.8,67.1,85,29.83,10.0,SE,13.8,17.3,N/A,,Overcast,140,2013-02-20 20:35:00
2:55 PM,72.3,67.5,85,29.81,10.0,SE,16.1,21.9,N/A,,Overcast,130,2013-02-20 20:55:00
3:15 PM,73.6,67.8,82,29.80,10.0,SE,20.7,-,N/A,,Overcast,130,2013-02-20 21:15:00
3:35 PM,73.2,67.5,82,29.79,10.0,SE,18.4,27.6,N/A,,Overcast,140,2013-02-20 21:35:00
3:55 PM,73.0,67.5,83,29.79,10.0,SE,19.6,23.0,N/A,,Overcast,140,2013-02-20 21:55:00
4:15 PM,73.2,67.5,82,29.77,10.0,SE,17.3,21.9,N/A,,Overcast,140,2013-02-20 22:15:00
4:35 PM,73.4,67.6,82,29.77,10.0,SE,20.7,24.2,N/A,,Overcast,140,2013-02-20 22:35:00
4:55 PM,73.9,68.0,82,29.76,10.0,SE,19.6,25.3,N/A,,Mostly Cloudy,130,2013-02-20 22:55:00
5:15 PM,72.7,67.6,84,29.76,7.0,SE,20.7,25.3,N/A,,Mostly Cloudy,130,2013-02-20 23:15:00
5:35 PM,72.0,67.5,86,29.76,7.0,SE,18.4,24.2,N/A,,Overcast,130,2013-02-20 23:35:00
5:55 PM,71.6,67.6,87,29.75,7.0,SE,15.0,25.3,N/A,,Overcast,140,2013-02-20 23:55:00
6:15 PM,71.1,67.5,88,29.75,7.0,SE,19.6,25.3,N/A,,Mostly Cloudy,140,2013-02-21 00:15:00
6:35 PM,70.9,67.8,90,29.75,7.0,SE,21.9,27.6,N/A,,Overcast,130,2013-02-21 00:35:00
6:55 PM,70.9,68.0,91,29.75,10.0,SE,18.4,24.2,N/A,,Overcast,140,2013-02-21 00:55:00
7:15 PM,70.9,68.0,91,29.75,10.0,SE,19.6,-,N/A,,Overcast,140,2013-02-21 01:15:00
7:35 PM,70.7,67.8,91,29.75,7.0,SE,20.7,24.2,N/A,,Overcast,130,2013-02-21 01:35:00
7:55 PM,70.9,68.0,91,29.75,7.0,SE,17.3,21.9,N/A,,Overcast,140,2013-02-21 01:55:00
8:15 PM,70.9,68.0,91,29.75,7.0,SE,19.6,25.3,N/A,,Overcast,130,2013-02-21 02:15:00
8:35 PM,70.9,68.0,91,29.74,7.0,SE,16.1,25.3,N/A,,Overcast,130,2013-02-21 02:35:00
9:15 PM,70.7,68.0,91,29.74,7.0,SE,18.4,25.3,N/A,,Overcast,130,2013-02-21 03:15:00
9:35 PM,70.7,68.0,91,29.74,7.0,SE,20.7,28.8,N/A,,Overcast,130,2013-02-21 03:35:00
9:55 PM,70.7,68.0,91,29.73,7.0,SE,19.6,26.5,N/A,,Overcast,130,2013-02-21 03:55:00
10:15 PM,70.7,68.0,91,29.73,7.0,SE,20.7,26.5,N/A,,Overcast,130,2013-02-21 04:15:00
10:35 PM,70.7,68.0,91,29.72,7.0,SE,21.9,27.6,N/A,,Overcast,140,2013-02-21 04:35:00
10:55 PM,70.9,68.0,91,29.71,7.0,SE,25.3,29.9,N/A,,Overcast,140,2013-02-21 04:55:00
11:15 PM,70.7,68.0,91,29.70,7.0,SE,23.0,28.8,N/A,,Overcast,140,2013-02-21 05:15:00
11:35 PM,70.7,68.0,91,29.69,7.0,SE,19.6,31.1,N/A,,Overcast,140,2013-02-21 05:35:00
11:55 PM,70.7,67.8,91,29.70,7.0,SSE,18.4,31.1,N/A,,Overcast,150,2013-02-21 05:55:00